COSMOS 1275 DEB, 42164

Orbit data source: Space-Track

COSMOS 1275 DEB, 42164 is space debris in LEO originally from a launch on Thu, 04 Jun 1981 UTC launched from the Plesetsk Missile And Space Complex (PKMTR). Debris objects in space refer to the collection of defunct objects orbiting the Earth. Examples of debris include non-operational satellites, rocket bodies, and fragments generated from explosions, collisions, or faulty payload assembly.

Loading next visibility...
Identifier
42164, 1981-053SC
Orbit
LEO
Country
Flag of CISCIS
Related business
Manufacturer
Unknown
Mission
Spacecraft
Bus & Motor
Unknown
Mass
Unknown
Launch date (UTC)
1981-06-04 (45 years ago)
Launch vehicle
Unknown
Launch site
Plesetsk Missile And Space Complex (PKMTR)
Object type
Payload
Rocket body
Debris
Shape & HBR
Unknown shape, 0.1 m
Radar Cross Section
Small (<0.1 m²)

Expand to show TLE details & history
Last TLE update: 3 weeks ago

TLE from 3 weeks ago
0 COSMOS 1275 DEB
1 42164U 81053SC  26218.92361281  .00003782  00000-0  76498-3 0  9992
2 42164  82.9172 294.6436 0019353 204.8147 155.2128 14.61025570662996
Epoch: 2026-08-06T22:10Z
TLE epoch observation values (Epoch: 2026-08-06T22:10:00.146Z)
Latitude
-0.00006°
Longitude
6.68629°
Altitude
705.309 km
Speed
7.497 km/s
True Right ascension
19h 38m 34s
True Declination
0° 00' 00"
Sunlit
Object was in full shadow at epoch
Visualization orbit readout
Latitude
Unknown
Longitude
Unknown
Altitude
Unknown
Speed
Unknown
Apparent Right ascension
Unknown
Apparent Declination
Unknown
Sunlit
N/A
Visualization observer readout
Local Sidereal Time
01:24:04
Azimuth
Unknown
Elevation
Unknown
Doppler factor
Unknown
Orbital elements
Apogee altitude
700.569 km
Perigee altitude
673.223 km
Semi-major axis
7,065.033 km
Eccentricity
0.00194
Inclination
82.9172°
RAAN
294.6436°
Arg. of periapsis
204.8147°
True anomaly
155.30557°
Mean anomaly
155.2128°
Eccentric anomaly
155.25921°
Mean motion
3.65487 °/min
Orbital period
98.5 mins
BSTAR
0.00076498
Loading maneuver chart data...
Computing Atmospheric mass density...

Documentation

Showing up to 5 results
|